EW1047 Weather Reports


time (UTC)temp
F
wind
direction
speed
knots
gust
knots
rain 1hr
in
rain 24hr
in
rain mn
in
humidity
%
barometer
mb
20260508003705 69 189 2.6 5.2 0.00 0.00 0.00 13 1019.0
20260508003203 69 219 4.3 10.4 0.00 0.00 0.00 13 1019.0
20260508001703 69 296 0.9 4.3 0.00 0.00 0.00 13 1019.0
20260508000704 70 197 4.3 7.8 0.00 0.00 0.00 14 1018.9
20260508000204 70 258 4.3 10.4 0.00 0.00 0.00 14 1019.1
20260507234703 70 208 3.5 10.4 0.00 0.00 0.00 14 1019.1
20260507233703 71 251 5.2 8.7 0.00 0.00 0.00 15 1019.4
20260507233205 71 230 1.7 11.3 0.00 0.00 0.00 15 1019.4
20260507231704 72 249 5.2 10.4 0.00 0.00 0.00 15 1019.4
20260507231203 72 241 6.1 13.0 0.00 0.00 0.00 15 1019.4
20260507230703 72 274 5.2 14.8 0.00 0.00 0.00 16 1019.4
20260507230204 73 260 5.2 13.0 0.00 0.00 0.00 17 1019.4
20260507223703 73 298 3.5 8.7 0.00 0.00 0.00 18 1019.4
20260507223203 73 265 0.9 10.4 0.00 0.00 0.00 18 1020.2
20260507221203 73 242 5.2 11.3 0.00 0.00 0.00 19 1020.2
20260507220703 73 244 2.6 10.4 0.00 0.00 0.00 18 1020.2
20260507220203 74 188 2.6 10.4 0.00 0.00 0.00 17 1020.2
20260507214203 74 268 3.5 7.0 0.00 0.00 0.00 17 1020.2
20260507213703 74 268 3.5 10.4 0.00 0.00 0.00 17 1020.2
20260507213204 74 234 2.6 11.3 0.00 0.00 0.00 16 1021.2
20260507211704 73 260 3.5 6.1 0.00 0.00 0.00 16 1021.2
20260507211203 74 17 1.7 4.3 0.00 0.00 0.00 14 1021.2
20260507210703 74 334 3.5 8.7 0.00 0.00 0.00 14 1021.2
20260507210203 74 291 4.3 7.0 0.00 0.00 0.00 15 1021.2
20260507204703 72 264 3.5 6.1 0.00 0.00 0.00 13 1021.2
20260507203704 72 338 1.7 7.0 0.00 0.00 0.00 12 1021.2
20260507203204 71 292 1.7 8.7 0.00 0.00 0.00 12 1021.4
20260507201703 71 355 2.6 10.4 0.00 0.00 0.00 11 1021.6
20260507201203 71 318 2.6 8.7 0.00 0.00 0.00 12 1021.6
20260507200703 70 281 4.3 8.7 0.00 0.00 0.00 12 1021.6
20260507200203 71 358 2.6 12.2 0.00 0.00 0.00 11 1021.7
20260507194703 70 277 3.5 10.4 0.00 0.00 0.00 13 1022.0
20260507194203 68 280 4.3 8.7 0.00 0.00 0.00 13 1022.0
20260507193703 68 353 4.3 10.4 0.00 0.00 0.00 11 1022.0
20260507193203 68 336 4.3 11.3 0.00 0.00 0.00 13 1022.0
20260507191703 68 326 4.3 10.4 0.00 0.00 0.00 15 1022.4
20260507191203 67 316 4.3 7.8 0.00 0.00 0.00 16 1022.4
20260507190203 66 333 4.3 12.2 0.00 0.00 0.00 16 1022.4
20260507184703 65 6 2.6 13.0 0.00 0.00 0.00 18 1022.4
20260507184204 64 348 2.6 12.2 0.00 0.00 0.00 19 1023.0
20260507183704 64 327 5.2 10.4 0.00 0.00 0.00 20 1023.0
20260507183204 64 348 7.0 12.2 0.00 0.00 0.00 20 1023.0
20260507181704 62 336 7.0 12.2 0.00 0.00 0.00 20 1023.0
20260507181203 62 325 6.1 13.9 0.00 0.00 0.00 23 1023.0
20260507180703 62 342 7.8 13.9 0.00 0.00 0.00 21 1023.0
20260507180204 61 325 5.2 14.8 0.00 0.00 0.00 24 1023.0
20260507174703 59 328 5.2 14.8 0.00 0.00 0.00 28 1024.1
20260507174203 59 349 6.1 13.9 0.00 0.00 0.00 28 1024.1
20260507173704 59 327 7.0 11.3 0.00 0.00 0.00 29 1024.1
20260507173204 59 351 6.1 13.9 0.00 0.00 0.00 28 1024.1
20260507171703 58 0 5.2 14.8 0.00 0.00 0.00 32 1024.1
20260507171203 57 352 8.7 14.8 0.00 0.00 0.00 31 1024.1
20260507170703 57 345 8.7 15.6 0.00 0.00 0.00 32 1024.1
20260507170204 56 341 7.8 15.6 0.00 0.00 0.00 33 1024.1
20260507164704 54 333 8.7 13.9 0.00 0.00 0.00 38 1024.1
20260507163703 53 5 8.7 15.6 0.00 0.00 0.00 42 1024.1
20260507163204 52 329 6.1 15.6 0.00 0.00 0.00 46 1024.1
20260507161704 50 355 6.1 17.4 0.00 0.00 0.00 49 1024.1
20260507161205 50 355 7.0 15.6 0.00 0.00 0.00 49 1024.1
20260507160704 49 7 8.7 13.9 0.00 0.00 0.00 50 1024.6
20260507160204 48 357 6.1 15.6 0.00 0.00 0.00 52 1024.6
20260507154703 47 346 7.8 17.4 0.00 0.00 0.00 51 1024.6
20260507154204 47 339 5.2 14.8 0.00 0.00 0.00 54 1024.6
20260507153705 47 359 7.8 13.9 0.00 0.00 0.00 53 1024.6
20260507153203 47 357 9.6 14.8 0.00 0.00 0.00 54 1025.2
20260507151703 46 345 4.3 12.2 0.00 0.00 0.00 59 1025.2
20260507151204 45 355 5.2 12.2 0.00 0.00 0.00 59 1025.2
20260507150703 45 342 5.2 10.4 0.00 0.00 0.00 59 1025.2
20260507150204 44 341 5.2 10.4 0.00 0.00 0.00 61 1025.2
20260507144704 43 332 4.3 10.4 0.00 0.00 0.00 65 1025.2
20260507144205 43 351 3.5 8.7 0.00 0.00 0.00 68 1025.2
20260507143705 42 351 2.6 6.1 0.00 0.00 0.00 70 1025.2
20260507143203 42 355 5.2 10.4 0.00 0.00 0.00 71 1025.2
20260507141703 40 1 5.2 10.4 0.00 0.00 0.00 77 1025.2
20260507141205 40 358 5.2 8.7 0.00 0.00 0.00 79 1025.2
20260507140703 40 341 3.5 6.1 0.00 0.00 0.00 81 1025.2
20260507140204 39 356 3.5 8.7 0.00 0.00 0.00 83 1025.2
20260507134704 37 0 2.6 6.1 0.00 0.00 0.00 87 1025.2
20260507134204 37 356 2.6 5.2 0.00 0.00 0.00 87 1025.2
20260507133704 37 316 1.7 5.2 0.00 0.00 0.00 88 1025.2
20260507133204 36 325 1.7 4.3 0.00 0.00 0.00 88 1025.2
20260507131703 35 33 0.9 2.6 0.00 0.00 0.00 89 1025.2
20260507131204 34 42 1.7 2.6 0.00 0.00 0.00 89 1025.2
20260507130704 33 58 1.7 2.6 0.00 0.00 0.00 89 1025.2
20260507130204 32 125 0.0 0.0 0.00 0.00 0.00 89 1025.2
20260507124704 31 126 0.0 0.0 0.00 0.00 0.00 88 1025.1
20260507124204 30 130 0.0 0.0 0.00 0.00 0.00 88 1025.1
20260507123203 30 130 0.0 0.0 0.00 0.00 0.00 87 1025.1
20260507121703 30 130 0.0 0.0 0.00 0.00 0.00 86 1025.1
20260507121203 29 130 0.0 0.0 0.00 0.00 0.00 86 1025.2
20260507120704 29 130 0.0 0.0 0.00 0.00 0.00 86 1025.2
20260507114703 29 130 0.0 0.0 0.00 0.00 0.00 84 1025.0
20260507114204 29 130 0.0 0.0 0.00 0.00 0.00 84 1025.0
20260507113703 29 130 0.0 0.0 0.00 0.00 0.00 84 1025.0
20260507113204 29 130 0.0 0.0 0.00 0.00 0.00 84 1025.0
20260507111703 30 130 0.0 0.0 0.00 0.00 0.00 84 1025.0
20260507110703 30 130 0.0 0.0 0.00 0.00 0.00 83 1025.0
20260507104703 30 130 0.0 0.0 0.00 0.00 0.00 83 1025.0
20260507104203 31 130 0.0 0.0 0.00 0.00 0.00 83 1025.0
20260507103704 31 130 0.0 0.0 0.00 0.00 0.00 83 1025.0
20260507101704 31 130 0.0 0.9 0.00 0.00 0.00 82 1025.0
20260507101204 31 130 0.0 0.0 0.00 0.00 0.00 81 1025.0
20260507100703 31 130 0.0 0.0 0.00 0.00 0.00 81 1025.0
20260507100203 31 130 0.0 2.6 0.00 0.00 0.00 81 1025.0
20260507094705 32 130 0.0 1.7 0.00 0.00 0.00 80 1025.1
20260507094204 32 130 0.0 0.0 0.00 0.00 0.00 80 1024.7
20260507093703 32 130 0.0 0.9 0.00 0.00 0.00 79 1024.7
20260507093204 32 130 0.9 1.7 0.00 0.00 0.00 79 1024.7
20260507091704 33 130 0.0 1.7 0.00 0.00 0.00 79 1024.7
20260507090704 34 130 1.7 2.6 0.00 0.00 0.00 79 1024.7
20260507090204 34 130 0.0 2.6 0.00 0.00 0.00 79 1024.7
20260507084204 35 131 0.0 0.0 0.00 0.00 0.00 79 1024.7
20260507083703 36 131 0.9 2.6 0.00 0.00 0.00 79 1024.7
20260507083204 36 131 1.7 2.6 0.00 0.00 0.00 79 1024.7
20260507081704 37 134 0.0 0.0 0.00 0.00 0.00 80 1023.9
20260507081203 37 134 0.0 0.0 0.00 0.00 0.00 80 1023.9
20260507080704 37 134 0.0 0.0 0.00 0.00 0.00 80 1023.9
20260507080204 37 134 0.0 2.6 0.00 0.00 0.00 81 1023.9
20260507074703 36 133 1.7 5.2 0.00 0.00 0.00 81 1023.9
20260507074204 36 105 1.7 5.2 0.00 0.00 0.00 81 1023.9
20260507073704 36 153 2.6 4.3 0.00 0.00 0.00 80 1023.9
20260507073203 36 17 0.0 2.6 0.00 0.00 0.00 80 1023.9
20260507071703 36 17 1.7 2.6 0.00 0.00 0.00 79 1023.9
20260507071204 36 17 0.9 1.7 0.00 0.00 0.00 79 1023.9
20260507070706 36 17 0.9 2.6 0.00 0.00 0.00 79 1023.9
20260507063703 37 17 0.0 0.0 0.00 0.00 0.00 78 1023.9
20260507063204 37 17 0.0 1.7 0.00 0.00 0.00 77 1023.9
20260507061704 37 17 1.7 2.6 0.00 0.00 0.00 76 1023.7
20260507061204 38 17 1.7 2.6 0.00 0.00 0.00 75 1023.7
20260507060705 38 17 0.9 2.6 0.00 0.00 0.00 75 1023.7
20260507060205 38 17 1.7 2.6 0.00 0.00 0.00 75 1023.7
20260507054703 39 16 0.0 0.0 0.00 0.00 0.00 74 1023.4
20260507054204 39 16 0.0 0.0 0.00 0.00 0.00 73 1023.4
20260507053704 39 16 0.0 0.0 0.00 0.00 0.00 73 1023.4
20260507051704 39 22 3.5 6.1 0.00 0.00 0.00 71 1023.4
20260507051204 39 5 1.7 2.6 0.00 0.00 0.00 67 1023.4
20260507050703 39 255 0.0 0.0 0.00 0.00 0.00 65 1023.4
20260507050204 39 255 0.0 0.0 0.00 0.00 0.00 65 1023.3
20260507044703 40 255 0.0 0.0 0.00 0.01 0.00 62 1023.2
20260507044203 41 255 0.0 0.0 0.00 0.01 0.00 62 1022.9
20260507043703 41 255 0.0 0.0 0.00 0.01 0.00 60 1022.9
20260507041203 43 255 0.0 0.0 0.00 0.01 0.00 56 1020.9
20260507040703 43 255 0.0 0.0 0.00 0.01 0.00 55 1020.9
20260507040205 44 254 0.0 0.0 0.00 0.01 0.00 53 1020.9
20260507034704 45 251 0.9 2.6 0.00 0.01 0.00 52 1020.9
20260507034204 45 250 0.0 1.7 0.00 0.01 0.00 51 1020.9
20260507033705 45 250 0.9 2.6 0.00 0.01 0.00 50 1020.9
20260507033205 46 246 0.0 0.9 0.00 0.01 0.00 49 1020.9
20260507031703 47 246 0.0 1.7 0.00 0.01 0.00 47 1020.9
20260507031204 47 246 0.0 1.7 0.00 0.01 0.00 47 1020.9
20260507030703 48 246 0.0 0.0 0.00 0.01 0.00 46 1020.9
20260507030203 48 246 0.0 2.6 0.00 0.02 0.00 45 1020.9
20260507024204 50 246 0.9 0.9 0.00 0.05 0.00 42 1020.9
20260507023704 50 246 0.0 0.9 0.00 0.06 0.00 41 1020.9
20260507023204 51 246 0.9 5.2 0.00 0.06 0.00 41 1020.9
20260507021704 52 248 1.7 4.3 0.00 0.06 0.00 39 1019.5
20260507021204 52 252 2.6 4.3 0.00 0.06 0.00 39 1019.5
20260507020704 52 241 3.5 7.8 0.00 0.06 0.00 38 1019.5
20260507020204 53 237 4.3 10.4 0.00 0.06 0.00 38 1019.5
20260507014704 54 272 5.2 10.4 0.00 0.06 0.00 37 1019.5
20260507013704 54 267 4.3 10.4 0.00 0.06 0.00 36 1019.5
20260507011204 56 264 8.7 13.0 0.00 0.07 0.00 35 1019.5
20260507010703 56 273 7.8 15.6 0.00 0.07 0.00 34 1019.5
20260507010204 56 281 7.8 20.9 0.00 0.07 0.00 34 1019.5
20260507004704 57 313 6.1 11.3 0.00 0.07 0.00 33 1019.5